EW6819 Weather Reports


Display with metric or nautical units.
time (UTC)temp
F
wind
direction
speed
MPH
gust
MPH
rain 1hr
in
rain 24hr
in
rain mn
in
humidity
%
barometer
mb
20260504185003 70 177 9.0 20.0 0.00 0.00 0.00 28 1004.9
20260504184503 71 189 7.0 14.0 0.00 0.00 0.00 30 1005.0
20260504184003 70 222 7.0 19.0 0.00 0.00 0.00 32 1005.0
20260504183503 70 233 8.0 19.0 0.00 0.00 0.00 30 1005.0
20260504183003 70 233 9.0 20.0 0.00 0.00 0.00 28 1005.1
20260504182503 69 209 10.0 23.0 0.00 0.00 0.00 28 1005.2
20260504182003 69 210 8.0 23.0 0.00 0.00 0.00 27 1005.1
20260504181503 70 209 9.0 27.0 0.00 0.00 0.00 32 1005.2
20260504181213 69 205 9.0 27.0 0.00 0.00 0.00 32 1005.2
20260504180503 69 205 9.0 20.0 0.00 0.00 0.00 34 1005.2
20260504180003 68 203 9.0 20.0 0.00 0.00 0.00 32 1005.2
20260504175503 68 189 9.0 23.0 0.00 0.00 0.00 30 1005.4
20260504175003 67 201 10.0 23.0 0.00 0.00 0.00 30 1005.4
20260504174503 67 213 10.0 21.0 0.00 0.00 0.00 32 1005.4
20260504174213 67 218 9.0 21.0 0.00 0.00 0.00 32 1005.4
20260504173503 68 207 8.0 21.0 0.00 0.00 0.00 35 1005.5
20260504173003 68 212 9.0 21.0 0.00 0.00 0.00 33 1005.5
20260504172503 68 207 8.0 15.0 0.00 0.00 0.00 35 1005.4
20260504172003 67 199 8.0 17.0 0.00 0.00 0.00 37 1005.3
20260504171504 67 208 8.0 23.0 0.00 0.00 0.00 33 1005.5
20260504171003 67 201 8.0 23.0 0.00 0.00 0.00 34 1005.5
20260504170503 67 201 9.0 20.0 0.00 0.00 0.00 34 1005.7
20260504151003 60 167 12.0 23.0 0.00 0.00 0.00 37 1006.3
20260504150503 61 174 10.0 23.0 0.00 0.00 0.00 37 1006.6
20260504141003 58 192 13.0 24.0 0.00 0.00 0.00 42 1006.6
20260504140503 58 187 12.0 24.0 0.00 0.00 0.00 39 1006.7
20260504130713 54 197 10.0 25.0 0.00 0.00 0.00 43 1007.3
20260504110503 48 195 7.0 15.0 0.00 0.00 0.00 44 1007.3
20260504100503 48 196 7.0 16.0 0.00 0.00 0.00 44 1007.3
20260504082003 49 195 6.0 10.0 0.00 0.00 0.00 42 1007.8
20260504081503 49 195 6.0 10.0 0.00 0.00 0.00 42 1007.9
20260504081003 49 187 6.0 14.0 0.00 0.00 0.00 42 1007.9
20260504080503 49 188 7.0 14.0 0.00 0.00 0.00 42 1008.0
20260504060213 49 199 7.0 18.0 0.00 0.00 0.00 41 1008.5
20260504050714 50 194 6.0 15.0 0.00 0.00 0.00 39 1008.6
20260504050003 50 195 7.0 13.0 0.00 0.00 0.00 39 1008.6
20260504045503 50 201 6.0 14.0 0.00 0.00 0.00 39 1008.6
20260504045003 50 191 5.0 14.0 0.00 0.00 0.00 39 1008.6
20260504044504 50 185 5.0 14.0 0.00 0.00 0.00 39 1008.6
20260504044003 50 184 5.0 10.0 0.00 0.00 0.00 39 1008.6
20260504043503 49 175 4.0 9.0 0.00 0.00 0.00 40 1008.7
20260504043003 49 168 5.0 14.0 0.00 0.00 0.00 40 1008.8
20260504042503 50 173 4.0 14.0 0.00 0.00 0.00 40 1008.6
20260504042003 50 180 4.0 11.0 0.00 0.00 0.00 39 1008.8
20260504041503 50 177 4.0 11.0 0.00 0.00 0.00 39 1008.8
20260504041003 50 178 4.0 11.0 0.00 0.00 0.00 39 1008.8
20260504040713 50 181 4.0 8.0 0.00 0.00 0.00 39 1008.8
20260504040003 50 177 4.0 8.0 0.00 0.00 0.00 39 1008.9
20260504035503 50 173 4.0 10.0 0.00 0.00 0.00 39 1008.8
20260504035003 50 179 3.0 10.0 0.00 0.00 0.00 39 1008.8
20260504034503 50 182 3.0 7.0 0.00 0.00 0.00 38 1008.9
20260504034003 51 180 4.0 7.0 0.00 0.00 0.00 39 1008.8
20260504033503 51 187 4.0 12.0 0.00 0.00 0.00 38 1008.8
20260504033003 51 184 4.0 12.0 0.00 0.00 0.00 38 1008.9
20260504032503 51 180 4.0 10.0 0.00 0.00 0.00 38 1008.9
20260504032214 51 186 4.0 8.0 0.00 0.00 0.00 38 1008.8
20260504031503 51 192 4.0 7.0 0.00 0.00 0.00 38 1009.0
20260504031003 51 205 4.0 11.0 0.00 0.00 0.00 38 1008.9
20260504030503 51 201 5.0 11.0 0.00 0.00 0.00 38 1009.0
20260504030003 52 188 5.0 11.0 0.00 0.00 0.00 38 1009.0
20260504025503 52 191 6.0 15.0 0.00 0.00 0.00 38 1008.9
20260504025003 52 190 5.0 15.0 0.00 0.00 0.00 38 1009.0
20260504024503 52 191 5.0 13.0 0.00 0.00 0.00 37 1009.0
20260504024003 52 193 6.0 13.0 0.00 0.00 0.00 37 1009.1
20260504023713 52 195 5.0 13.0 0.00 0.00 0.00 38 1009.2
20260504023003 52 201 5.0 15.0 0.00 0.00 0.00 37 1009.2
20260504022503 52 204 5.0 15.0 0.00 0.00 0.00 37 1009.2
20260504022003 52 218 5.0 10.0 0.00 0.00 0.00 37 1009.2
20260504021713 52 223 5.0 10.0 0.00 0.00 0.00 37 1009.3
20260504021003 53 232 6.0 17.0 0.00 0.00 0.00 35 1009.4
20260504020503 53 237 6.0 17.0 0.00 0.00 0.00 35 1009.4
20260504020003 52 220 6.0 16.0 0.00 0.00 0.00 35 1009.3
20260504015503 52 208 6.0 14.0 0.00 0.00 0.00 34 1009.2
20260504015003 52 214 4.0 16.0 0.00 0.00 0.00 35 1009.2
20260504014503 52 235 3.0 16.0 0.00 0.00 0.00 36 1009.3
20260504014003 52 245 4.0 12.0 0.00 0.00 0.00 36 1009.2
20260504013503 52 248 4.0 12.0 0.00 0.00 0.00 36 1009.3
20260504013003 52 247 4.0 10.0 0.00 0.00 0.00 36 1009.3
20260504012503 52 234 3.0 9.0 0.00 0.00 0.00 36 1009.4
20260504012003 52 233 4.0 18.0 0.00 0.00 0.00 36 1009.2
20260504011503 52 234 5.0 18.0 0.00 0.00 0.00 36 1009.2
20260504011003 52 238 4.0 14.0 0.00 0.00 0.00 36 1009.2
20260504010503 52 238 4.0 13.0 0.00 0.00 0.00 36 1009.2
20260504010213 52 237 4.0 13.0 0.00 0.00 0.00 36 1009.2
20260504005503 52 225 4.0 21.0 0.00 0.00 0.00 35 1009.2
20260504005003 52 238 5.0 21.0 0.00 0.00 0.00 34 1009.4
20260504004503 52 247 5.0 16.0 0.00 0.00 0.00 32 1009.5
20260504004003 52 244 5.0 19.0 0.00 0.00 0.00 33 1009.4
20260504003503 52 243 6.0 19.0 0.00 0.00 0.00 31 1009.1
20260504003213 52 225 6.0 14.0 0.00 0.00 0.00 31 1009.1
20260504002714 52 219 5.0 23.0 0.00 0.00 0.00 31 1009.1
20260504002003 52 227 5.0 23.0 0.00 0.00 0.00 31 1008.9
20260504001503 52 226 6.0 15.0 0.00 0.00 0.00 32 1009.0
20260504001003 52 216 7.0 23.0 0.00 0.00 0.00 31 1009.0
20260504000503 52 217 5.0 23.0 0.00 0.00 0.00 32 1009.1
20260504000003 53 243 5.0 16.0 0.00 0.00 0.00 31 1009.0
20260503235503 53 246 6.0 22.0 0.00 0.00 0.00 31 1009.0
20260503235003 53 256 8.0 22.0 0.00 0.00 0.00 30 1009.0
20260503234714 53 257 7.0 22.0 0.00 0.00 0.00 30 1008.9
20260503234003 53 244 8.0 27.0 0.00 0.00 0.00 29 1009.0
20260503233503 54 248 6.0 27.0 0.00 0.00 0.00 29 1008.9
20260503233003 54 240 4.0 15.0 0.00 0.00 0.00 29 1009.0
20260503232503 54 262 6.0 15.0 0.00 0.00 0.00 28 1008.8
20260503232212 54 263 5.0 15.0 0.00 0.00 0.00 27 1008.8
20260503231503 54 252 6.0 20.0 0.00 0.00 0.00 28 1008.7
20260503231003 54 246 5.0 20.0 0.00 0.00 0.00 28 1008.6
20260503230503 54 230 4.0 12.0 0.00 0.00 0.00 28 1008.5
20260503230003 54 227 4.0 12.0 0.00 0.00 0.00 28 1008.6
20260503225503 54 217 4.0 13.0 0.00 0.00 0.00 28 1008.5
20260503225003 54 210 3.0 13.0 0.00 0.00 0.00 28 1008.5
20260503224503 55 239 3.0 8.0 0.00 0.00 0.00 29 1008.7
20260503224212 55 243 3.0 8.0 0.00 0.00 0.00 27 1008.5
20260503223713 54 253 4.0 14.0 0.00 0.00 0.00 26 1008.6
20260503223003 55 253 9.0 28.0 0.00 0.00 0.00 26 1008.4
20260503222503 55 260 6.0 23.0 0.00 0.00 0.00 25 1008.6
20260503222003 55 256 4.0 17.0 0.00 0.00 0.00 25 1008.5
20260503221713 55 248 4.0 17.0 0.00 0.00 0.00 26 1008.5
20260503221214 55 237 6.0 21.0 0.00 0.00 0.00 26 1008.6
20260503220713 55 243 5.0 21.0 0.00 0.00 0.00 27 1008.6
20260503220003 55 259 5.0 15.0 0.00 0.00 0.00 28 1008.4
20260503215503 55 252 6.0 18.0 0.00 0.00 0.00 27 1008.4
20260503215003 55 246 6.0 19.0 0.00 0.00 0.00 27 1008.3
20260503214503 56 228 4.0 19.0 0.00 0.00 0.00 29 1008.3
20260503214003 55 220 3.0 11.0 0.00 0.00 0.00 28 1008.3
20260503213713 55 305 3.0 13.0 0.00 0.00 0.00 29 1008.4
20260503213003 55 324 2.0 13.0 0.00 0.00 0.00 29 1008.3
20260503212503 54 276 2.0 7.0 0.00 0.00 0.00 32 1008.3
20260503212003 54 266 2.0 9.0 0.00 0.00 0.00 33 1008.4
20260503211503 54 249 3.0 9.0 0.00 0.00 0.00 30 1008.4
20260503211003 54 229 3.0 9.0 0.00 0.00 0.00 32 1008.3
20260503210503 54 205 3.0 11.0 0.00 0.00 0.00 31 1008.3
20260503210003 54 191 5.0 12.0 0.00 0.00 0.00 30 1008.4
20260503205713 54 186 5.0 12.0 0.00 0.00 0.00 31 1008.4
20260503205003 54 187 5.0 12.0 0.00 0.00 0.00 32 1008.3
20260503204503 54 205 4.0 11.0 0.00 0.00 0.00 30 1008.4
20260503204003 54 211 4.0 11.0 0.00 0.00 0.00 29 1008.5
20260503203503 54 236 4.0 12.0 0.00 0.00 0.00 31 1008.5
20260503203003 54 244 5.0 12.0 0.00 0.00 0.00 32 1008.6
20260503202714 54 259 5.0 13.0 0.00 0.00 0.00 31 1008.6
20260503202003 54 280 2.0 13.0 0.00 0.00 0.00 31 1008.8
20260503201503 54 235 3.0 16.0 0.00 0.00 0.00 32 1008.9
20260503201003 54 215 3.0 16.0 0.00 0.00 0.00 33 1008.9
20260503200503 54 152 2.0 8.0 0.00 0.00 0.00 30 1009.0
20260503200003 54 234 3.0 12.0 0.00 0.00 0.00 34 1009.0
20260503195503 53 257 6.0 18.0 0.00 0.00 0.00 32 1009.1
20260503195003 53 252 4.0 18.0 0.00 0.00 0.00 33 1009.2
20260503194504 54 150 3.0 9.0 0.00 0.00 0.00 34 1009.4
20260503194003 53 190 5.0 12.0 0.00 0.00 0.00 32 1009.4
20260503193503 53 201 6.0 17.0 0.00 0.00 0.00 33 1009.5
20260503193003 54 223 6.0 17.0 0.00 0.00 0.00 30 1009.5
20260503192503 53 213 5.0 16.0 0.00 0.00 0.00 32 1009.6
20260503192213 53 196 5.0 15.0 0.00 0.00 0.00 35 1009.5
20260503191714 53 228 3.0 9.0 0.00 0.00 0.00 31 1009.7
20260503191003 52 241 5.0 13.0 0.00 0.00 0.00 32 1009.9
20260503190503 52 242 6.0 17.0 0.00 0.00 0.00 32 1010.1
20260503190003 52 239 5.0 17.0 0.00 0.00 0.00 33 1010.1
20260503185503 52 225 5.0 16.0 0.00 0.00 0.00 35 1010.0